Погода в Ташуджу

Турция     36°19′11″N   33°52′48″E
темп.,
°C
ветер,
м/с
пор.,
м/с
влажн.,
%
обл.,
%
осадки,
мм/ч
давл.,
гПа
погр.,
м
8 мая, сб
сб800:00+21юз12805 0.0 101468
03:00+21ссв56845 0.0 1014257
06:00+21св56835 0.0 1014354
09:00+21всв557925 0.0 1015410
12:00+22вюв33766 0.0 1015203
15:00+22ююз237413 0.0 1014108
18:00+22ююз3372100 0.0 101386
21:00+22ссв1173100 0.0 101217
9 мая, вс
вс900:00+22св3371100 0.0 101246
03:00+22ссв2275100 0.0 101027
06:00+22ссв3373100 0.0 101059
09:00+22ю22705 0.0 101038
12:00+24ю44630 0.0 101083
15:00+24ю55650 0.0 100998
18:00+28ссз912392 0.0 1007123
21:00+25ссз1116350 0.0 1009232
10 мая, пн
пн1000:00+23ссз814400 0.0 1010304
03:00+21с35470 0.0 1011203
06:00+19сз57420 0.0 1012376
09:00+21ссз46380 0.0 1012601
12:00+23ю22440 0.0 1012161
15:00+21ююв44500 0.0 1011286
18:00+22ю44560 0.0 1009148
21:00+23зсз44450 0.0 100929
11 мая, вт
вт1100:00+22сз79420 0.0 1009134
03:00+20ссз810400 0.0 1009246
06:00+20ссз89410 0.0 1010223
09:00+22сз56390 0.0 1011301
12:00+22ююв54410 0.0 1011159
15:00+22ю23540 0.0 1010128
18:00+22юз33510 0.0 100875
21:00+22юз44540 0.0 100881
12 мая, ср
ср1200:00+22юз56620 0.0 1008123
03:00+22юз45690 0.0 1008167
06:00+21сз11640 0.0 100988
09:00+22всв33650 0.0 1010214
12:00+22ююв22610 0.0 1011225
15:00+22ююз33590 0.0 1010237
18:00+23юз44610 0.0 1009110
21:00+22юз56630 0.0 101092